Hourly Data Report for October 05, 2017

All times are specified in Local Standard Time (LST). Add 1 hour to adjust for Daylight Saving Time where and when it is observed.

BAKER LAKE A
NUNAVUT

64°17'56.000" N
96°04'40.000" W
18.60 m
2300503
71926
YBK

Download Data

Hourly Data (October 2017)
Hourly Data Report for October 5, 2017
Temp Definition
°C
Dew Point Temp Definition
°C
Rel Hum Definition
%
Wind Dir Definition
10's deg

Wind Spd Definition
km/h
Visibility Definition
km
Stn Press Definition
kPa
Hmdx Definition


Wind Chill Definition


Weather Definition


TIME
00:00 Legend Double Dagger -4.4 -8.2 75 31 54 24.1 99.80   -14 Snow
01:00 Legend Double Dagger -4.9 -7.9 79 30 42 9.7 99.78   -14 Snow,Blowing Snow
02:00 Legend Double Dagger -4.9 -8.0 79 31 48 9.7 99.76   -15 Snow,Blowing Snow
03:00 Legend Double Dagger -5.2 -9.3 73 31 52 9.7 99.71   -15 Snow,Blowing Snow
04:00 Legend Double Dagger -5.2 -8.1 80 31 44 9.7 99.70   -15 Snow,Blowing Snow
05:00 Legend Double Dagger -5.4 -8.2 80 31 49 11.3 99.70   -15 Snow,Blowing Snow
06:00 Legend Double Dagger -4.8 -8.3 77 32 50 16.1 99.69   -15 Snow
07:00 Legend Double Dagger -4.7 -8.2 77 32 52 32.2 99.67   -15 Snow
08:00 Legend Double Dagger -4.5 -7.8 78 31 46 24.1 99.71   -14 Snow
09:00 Legend Double Dagger -4.3 -7.0 81 31 45 4.8 99.68   -14 Snow,Blowing Snow
10:00 Legend Double Dagger -4.0 -6.5 82 31 45 8.1 99.70   -13 Snow,Blowing Snow
11:00 Legend Double Dagger -3.6 -6.3 81 32 43 16.1 99.70   -12 Snow,Blowing Snow
12:00 Legend Double Dagger -3.2 -6.2 80 32 49 24.1 99.68   -12 Snow,Blowing Snow
13:00 Legend Double Dagger -2.5 -5.7 79 32 40 24.1 99.70   -11 LegendNANA
14:00 Legend Double Dagger -2.6 -5.6 79 32 44 24.1 99.72   -11 LegendNANA
15:00 Legend Double Dagger -2.1 -5.1 80 32 38 32.2 99.76   -10 Cloudy
16:00 Legend Double Dagger -2.5 -5.0 83 31 42 24.1 99.78   -11 LegendNANA
17:00 Legend Double Dagger -2.5 -4.8 84 32 34 32.2 99.80   -10 LegendNANA
18:00 Legend Double Dagger -2.6 -4.7 86 31 32 32.2 99.80   -10 Cloudy
19:00 Legend Double Dagger -2.6 -4.4 87 32 36 24.1 99.79   -10 LegendNANA
20:00 Legend Double Dagger -2.8 -4.0 91 34 22 9.7 99.83   -9 Snow
21:00 Legend Double Dagger -4.2 -6.6 84 35 21 24.1 99.83   -11 Mainly Clear
22:00 Legend Double Dagger -5.2 -7.4 85 33 21 24.1 99.85   -12 LegendNANA
23:00 Legend Double Dagger -5.6 -7.2 88 35 21 24.1 99.86   -12 LegendNANA

Notes on Data Quality.

Legend

  • E = Estimated
  • M = Missing
  • NA = Not Available
  • ‡ = Partner data that is not subject to review by the National Climate Archives
Date modified: